World > North America > United States > Washington   City of Seattle, WA

Seattle, Washington Regional Weather

Lat: 47.61N, Lon: 122.33W
Wx Zone: WAZ558Web Search
Seattle Weather Warning NWS WEATHER ALERT FOR THE SEATTLE, WA AREA - Issued: 315 AM PDT Fri Aug 14 2020 Seattle Weather Warning  

Helpful Tip: Abbreviated, 7 Day, 14 Day Forecasts. There is a weather forecast for every taste.

Feedback

Seattle, WA Regional Weather

Expires:202008141100;;432362
ASUS46 KSEW 141020
RWRWA 

WASHINGTON REGIONAL WEATHER ROUNDUP
NATIONAL WEATHER SERVICE SEATTLE WA
300 AM PDT FRI AUG 14 2020

NOTE:"FAIR" INDICATES FEW OR NO CLOUDS BELOW 12,000 FEET WITH NO 
SIGNIFICANT WEATHER AND/OR OBSTRUCTIONS TO VISIBILITY.


WAZ507-509-555>559-141100-
SEATTLE, TACOMA, EVERETT, AND VICINITY
  
CITY           SKY/WX    TMP DP  RH WIND       PRES   REMARKS
EVERETT        CLEAR     55  48  77 N5        30.22S                  
BOEING FIELD   CLEAR     59  48  67 CALM      30.20S                  
RENTON         CLEAR     56  48  74 S3        30.20S                  
SEATAC AIRPORT CLEAR     60  47  61 NE13      30.21R                  
JBLM-MCCHORD   CLEAR     49  43  77 S3        30.20S                  
PUYALLUP       FAIR      48  46  93 CALM      30.20S                  
BREMERTON      CLEAR     51  47  86 CALM      30.21                   
JBLM-FT LEWIS  CLEAR     51  51  99 CALM      30.19S                  
TACOMA NARROWS CLEAR     53  45  74 CALM      30.21S                  
$$
 

SKY/WX - Weather  TMP - Temperature  DP - Dew Point  RH - Relative Humidity
WIND - Wind Direction/Speed PRES - Barometric Pressure VSB - Visibility
WCI - Wind Chill Index E13G22 Wind - East Wind 13 mph/Gusts of 22 mph
Seattle Weather Map
UTC Time: 8/14/2020, 10:58
Your Time: